Samuel Simoes

Chefscout - Chaves
4 Apr 2027
Sonntag
Verarbeitung

Persönlichkeit

Anpassungsfähigkeit (14) Ehrgeiz (17) Kontroverse (17) Loyalität (7) Druck (16) Professionalität (17) Fairness (12) Temperament (7)

Profil

Trainerstil Demokratisch
Lizenz Kontinentale A
Entschlossenheit 4
Menschenführung 8
Motivation 5
Disziplin 6
Arbeitszufriedenheit
56%
Ermüdung
0%
Rolle Chefscout
Gehalt 20.6K p/W
Vertrag 14.03.2029

Leistung

Verhalten Gut
Trainingseffektivität
28%
Spielerentwicklung
35%
Verletzungsprävention
20%
Taktische Umsetzung
50%

Letzte Ereignisse

Spieler begutachtet jetzt
Nahm an einer Scouting-Besprechung teil jetzt
Spieler begutachtet jetzt
Spieler begutachtet jetzt
Spieler begutachtet jetzt
Spieler begutachtet jetzt
Spieler begutachtet 7T her
Spieler begutachtet 7T her

Aktuell beobachtet

202
Spieler Verein Status Fähigkeit Vertrauen Beobachtet Zuletzt beobachtet Letzte Stimme
Jordan Amissah Burton Albion Aktiv 98 / 109 40% 3 03.04.2027 -
Luka Veličković Benfica Bericht bereit 78 / 86 67% 1 03.04.2027 -
Pedro Rocha Juventude Aktiv 112 / 116 40% 7 02.04.2027 -
William Rovida Pro Patria Aktiv 116 / 98 40% 2 02.04.2027 -
Evidence Billiat Ajax Cape Town Aktiv 111 / 125 40% 3 01.04.2027 -
Matteo Rizzo Campobasso Aktiv 103 / 112 40% 1 01.04.2027 -
Alfie Whiteman Oliveirense Aktiv 105 / 96 40% 5 31.03.2027 -
Martin Jedlička Banik Ostrava Aktiv 112 / 133 40% 2 31.03.2027 -
Yanis Hénin Aswan Aktiv 100 / 86 40% 2 30.03.2027 -
Henrich Ravas Cracovia Aktiv 90 / 112 40% 2 29.03.2027 -
Jan Koutný Sigma Olomouc Aktiv 111 / 125 40% 4 29.03.2027 -
Denys Ihnatenko Livyi Bereh Aktiv 102 / 105 40% 2 27.03.2027 -
Vitor Eudes Fluminense Aktiv 137 / 124 40% 7 27.03.2027 -
Akpan Udoh Mosta Aktiv 85 / 89 40% 1 26.03.2027 -
Sébastien Cibois Portimonense Aktiv 113 / 122 40% 4 25.03.2027 -
Egoitz Arana Real Sociedad Aktiv 114 / 108 40% 3 25.03.2027 -
Timur Kraikov Sokol Aktiv 77 / 106 40% 3 24.03.2027 -
Shamal George Cheltenham Town Aktiv 107 / 107 40% 2 23.03.2027 -
Mathew Hudson Oldham Athletic Aktiv 97 / 109 40% 2 22.03.2027 -
Manuel Baldé Wadi Degla Aktiv 110 / 92 40% 3 22.03.2027 -
Daniil Frolkin Fakel Aktiv 111 / 93 40% 2 20.03.2027 -
Ilja Tuseev Chelyabinsk Aktiv 90 / 100 40% 2 19.03.2027 -
Mohamed Camara Asante Kotoko Aktiv 110 / 106 40% 2 19.03.2027 -
Dimitar Sheytanov CSKA 1948 Aktiv 125 / 116 40% 2 17.03.2027 -
Abderrahmane Medjadel ASO Chlef Aktiv 91 / 116 40% 1 17.03.2027 -
Martin Melichar Pribram Aktiv 90 / 83 40% 1 12.03.2027 -
Luke Southwood Bristol Rovers Aktiv 112 / 111 40% 1 10.03.2027 -
Francisco Tinaglini Panserraikos Aktiv 112 / 110 40% 1 10.03.2027 -
Killian Cahill Leyton Orient Aktiv 97 / 110 40% 1 09.03.2027 -
Ivan Pakholiuk Kolos Aktiv 128 / 109 40% 1 09.03.2027 -
Ricardo Velho Aris Thessaloniki Aktiv 114 / 127 40% 3 08.03.2027 -
Leonardo Marson Gubbio Aktiv 109 / 98 40% 1 08.03.2027 -
Matouš Trmal Teplice Aktiv 101 / 128 40% 3 06.03.2027 -
Ivan Lomaev Ufa Aktiv 109 / 99 40% 3 05.03.2027 -
Đorđe Nikolić Cukaricki Aktiv 107 / 128 40% 1 02.03.2027 -
Nikita Kokarev Krylya Sovetov Aktiv 132 / 121 40% 1 01.03.2027 -
Zach Hemming Chesterfield Aktiv 121 / 100 40% 1 01.03.2027 -
Aymen Mouyet Military Production Aktiv 84 / 89 40% 1 28.02.2027 -
Nikos Christogeorgos OFI Aktiv 104 / 95 40% 1 25.02.2027 -
Yurii-Volodymyr Hereta Rukh Aktiv 89 / 112 40% 1 25.02.2027 -
Dmytro Matsapura Prykarpattia Aktiv 105 / 101 40% 1 24.02.2027 -
Jakub Bielecki Ruch Aktiv 113 / 112 40% 1 17.02.2027 -
Pedro Miguéis Chertanovo Aktiv 60 / 67 40% 1 17.02.2027 -
Sławomir Abramowicz Jagiellonia Aktiv 141 / 134 40% 1 15.02.2027 -
Jan Bačkovský Dukla Prague Aktiv 122 / 105 40% 3 11.02.2027 -
Anton Zhylkin Karpaty Aktiv 89 / 93 40% 2 11.02.2027 -
Bogdan Ovsyannikov Orenburg Aktiv 103 / 106 40% 1 04.02.2027 -
Myles Roberts Doncaster Rovers Aktiv 115 / 100 40% 1 04.02.2027 -
Marcelo Miño Debrecen Aktiv 106 / 103 40% 1 31.01.2027 -
Oleksandr Saputin Zorya Aktiv 103 / 132 40% 1 30.01.2027 -
Guilherme Pires Sporting CP Abgelehnt 81 / 96 67% 3 23.01.2027 Ablehnen
Filip Samurović Radnik Surdulica Aktiv 86 / 111 40% 1 19.01.2027 -
Heorhii Yermakov Metalist Aktiv 107 / 120 40% 1 18.01.2027 -
Volodymyr Makhankov Vorskla Aktiv 103 / 99 40% 1 17.01.2027 -
Will Dennis Milton Keynes Dons Aktiv 108 / 99 40% 1 11.01.2027 -
Edarlyn Reyes Arsenal Tula Aktiv 131 / 120 40% 5 29.12.2026 -
Alexandr Saplinov Volga Aktiv 108 / 104 40% 1 28.12.2026 -
Solly Khunyedi Bloemfontein Celtic Aktiv 114 / 104 40% 2 27.12.2026 -
Jorge Obregón Deportivo Pasto Aktiv 108 / 125 40% 1 27.12.2026 -
Jay-Roy Grot OB Aktiv 109 / 108 40% 2 26.12.2026 -
Marcus Browne AFC Wimbledon Aktiv 113 / 105 40% 1 26.12.2026 -
Vitor Hugo Lusitânia Lourosa Aktiv 93 / 109 40% 1 26.12.2026 -
Szymon Weirauch Lechia Aktiv 109 / 100 40% 1 25.12.2026 -
Matty Stevens AFC Wimbledon Aktiv 91 / 96 40% 1 24.12.2026 -
Midana Cassamá Portimonense Aktiv 115 / 113 40% 1 24.12.2026 -
Danyil Alefirenko Chornomorets Aktiv 112 / 116 40% 7 22.12.2026 -
Kellyn Acosta Pogon Aktiv 118 / 138 40% 1 22.12.2026 -
Jerónimo Porto Lapegüe Slask Aktiv 122 / 123 40% 2 21.12.2026 -
Beryly Lubala CSKA 1948 Aktiv 120 / 111 40% 1 21.12.2026 -
Martin Trnovský Podbrezova Aktiv 122 / 120 40% 1 20.12.2026 -
Luca Martínez Dupuy Godoy Cruz Aktiv 139 / 114 40% 2 19.12.2026 -
Themba Manyama Ajax Cape Town Aktiv 112 / 112 40% 2 19.12.2026 -
Mariusz Stępiński Korona Aktiv 109 / 119 40% 1 19.12.2026 -
Mikhail Gainov Dinamo Stavropol Aktiv 66 / 75 40% 1 19.12.2026 -
Marcelo Estigarribia Unión de Santa Fe Aktiv 113 / 124 40% 1 16.12.2026 -
Daniel Vašulín Zbrojovka Brno Aktiv 114 / 109 40% 1 14.12.2026 -
Chinonso Offor Baltika Aktiv 107 / 111 40% 1 14.12.2026 -
James Rodrigues Nart Aktiv 99 / 96 40% 1 14.12.2026 -
Fernando Tapia Club America Aktiv 133 / 127 40% 1 13.12.2026 -
Milan Tučić Honved Aktiv 118 / 101 40% 1 13.12.2026 -
Yann Kitala Vizela Aktiv 90 / 100 40% 1 12.12.2026 -
Carlos Gutiérrez Montana Aktiv 123 / 88 40% 1 12.12.2026 -
Leandro Dias Pacos de Ferreira Aktiv 113 / 97 40% 1 12.12.2026 -
Matheus Donelli Corinthians Aktiv 114 / 117 40% 1 11.12.2026 -
Luka Baš Koper Aktiv 89 / 109 40% 1 09.12.2026 -
George Puşcaş Dinamo Bucharest Abgelehnt 112 / 111 40% 5 07.12.2026 Ablehnen
Mohamed Ofkir Valerenga Aktiv 102 / 99 40% 1 06.12.2026 -
Bogdan Petrović TSC Aktiv 112 / 105 40% 1 06.12.2026 -
Kagiso Malinga Bidvest Wits Aktiv 92 / 101 40% 4 05.12.2026 -
Thiago Calone All Boys Aktiv 115 / 106 40% 1 04.12.2026 -
Ciprian Coman Pandurii Aktiv 109 / 113 40% 2 03.12.2026 -
Lazar Tufegdžić Cukaricki Aktiv 98 / 106 40% 1 03.12.2026 -
Kwame Opoku Asante Kotoko Aktiv 86 / 109 40% 4 02.12.2026 -
Agustín Venezia Iquique Aktiv 126 / 123 40% 2 01.12.2026 -
Ramon Swindon Town Aktiv 104 / 92 40% 2 01.12.2026 -
Teboho Tlolane Golden Arrows Aktiv 125 / 106 40% 1 01.12.2026 -
Pablo Fernández Leiria Aktiv 117 / 111 40% 1 29.11.2026 -
Đorđe Jovanović Radnik Surdulica Aktiv 122 / 114 40% 1 29.11.2026 -
Karlo Špeljak Lucko Aktiv 82 / 102 40% 1 29.11.2026 -
Peter Itodo Metalist Aktiv 98 / 101 40% 2 27.11.2026 -
Stefan Vukić Rudes Aktiv 115 / 120 40% 3 26.11.2026 -
Ali Soliman Masr El Makasa Aktiv 111 / 135 40% 1 26.11.2026 -
Wallace Yan Flamengo Aktiv 118 / 127 40% 1 26.11.2026 -
Ellis Iandolo Colchester United Aktiv 109 / 93 40% 1 25.11.2026 -
Nduduzo Sibiya Golden Arrows Aktiv 136 / 96 40% 2 24.11.2026 -
Jordan Graham Newport County Aktiv 115 / 121 40% 1 24.11.2026 -
John Okoye Ebuka Ittihad Aktiv 107 / 103 40% 2 23.11.2026 -
Alibek Aliev CFR Cluj Aktiv 90 / 115 40% 1 22.11.2026 -
Facundo Castro Nueva Chicago Aktiv 100 / 110 40% 1 22.11.2026 -
Harry Cornick AFC Wimbledon Aktiv 99 / 96 40% 1 21.11.2026 -
Edwar López Deportes Tolima Aktiv 117 / 124 40% 7 20.11.2026 -
Alejandro Organista Puebla Aktiv 117 / 124 40% 1 20.11.2026 -
Lucas Di Yorio Santos Laguna Aktiv 128 / 104 40% 1 19.11.2026 -
Lazar Mijović Cukaricki Aktiv 109 / 110 40% 2 18.11.2026 -
Jose Barrios Cortulua Aktiv 120 / 130 40% 2 17.11.2026 -
Benjamin Kanurić Admira Wacker Aktiv 111 / 104 40% 1 17.11.2026 -
Qara Ozobic Inter Aktiv 101 / 120 40% 1 13.11.2026 -
Ondrej Duda Zamalek Aktiv 128 / 127 40% 2 11.11.2026 -
Rifat Zhemaletdinov Ural Aktiv 135 / 113 40% 1 11.11.2026 -
Jáder Obrian Santa Fe Aktiv 96 / 109 40% 3 09.11.2026 -
Elias Manoel Tijuana Aktiv 93 / 124 40% 1 09.11.2026 -
David Barbona Defensa y Justicia Aktiv 124 / 133 40% 4 07.11.2026 -
Agustín Gallo Tristán Suárez Aktiv 92 / 123 40% 2 07.11.2026 -
Diego Gallegos Morelia Aktiv 101 / 95 40% 1 07.11.2026 -
Gabriel Báez Talleres Aktiv 113 / 128 40% 1 05.11.2026 -
Franco Cristaldo Talleres Aktiv 141 / 119 40% 1 05.11.2026 -
Viktor Hamsik FK Senica Aktiv 78 / 109 40% 1 04.11.2026 -
Maximiliano Gómez Nacional Aktiv 107 / 107 40% 1 02.11.2026 -
Ole Sæter Valerenga Aktiv 132 / 128 40% 1 02.11.2026 -
Bautista Arricau OB Aktiv 84 / 112 40% 1 31.10.2026 -
Bryan Róchez Leiria Aktiv 104 / 110 40% 2 30.10.2026 -
Mauro Méndez Tigre Aktiv 112 / 114 40% 1 30.10.2026 -
José David Ramírez Leon Aktiv 109 / 108 40% 1 29.10.2026 -
Alejandro Melo Temperley Aktiv 136 / 110 40% 1 27.10.2026 -
Tomás Molina Argentinos Juniors Aktiv 111 / 133 40% 2 26.10.2026 -
Esteban da Silva Racing Aktiv 103 / 105 40% 3 23.10.2026 -
Emiliano Marcondes OB Aktiv 120 / 111 40% 2 22.10.2026 -
Ezequiel Almirón Estudiantes Aktiv 130 / 96 40% 3 22.10.2026 -
Tobías Leiva Estudiantes Aktiv 121 / 111 40% 1 22.10.2026 -
Davo Penafiel Aktiv 109 / 104 40% 1 22.10.2026 -
Alberto Soro Dinamo Bucharest Aktiv 139 / 120 40% 1 22.10.2026 -
Wandile Duba Bidvest Wits Aktiv 109 / 113 40% 1 21.10.2026 -
Archil Kakabadze Tskhinvali Aktiv 117 / 120 40% 1 21.10.2026 -
Franco Fagúndez Estudiantes Aktiv 122 / 122 40% 3 19.10.2026 -
Rúben Alves Penafiel Aktiv 118 / 111 40% 1 19.10.2026 -
Evidence Mokoena Platinum Stars Aktiv 81 / 93 40% 2 17.10.2026 -
Enzo Avaro Mitre Aktiv 124 / 126 40% 2 16.10.2026 -
Johan Martínez Deportivo Cali Aktiv 126 / 114 40% 1 16.10.2026 -
Diego Becker Tristán Suárez Aktiv 129 / 115 40% 1 16.10.2026 -
Facundo Pons San Martín Aktiv 99 / 130 40% 3 15.10.2026 -
Akinkunmi Amoo Ismaily Aktiv 137 / 110 40% 1 14.10.2026 -
Rodin Quiñónes Dinamo Batumi Aktiv 88 / 100 40% 2 12.10.2026 -
Leandro Suhr Boston River Aktiv 97 / 134 40% 2 09.10.2026 -
Julián Cosi Madryn Aktiv 128 / 125 40% 1 09.10.2026 -
Gustavo Cazonatti Mirassol Aktiv 135 / 105 40% 1 09.10.2026 -
Bruno Larregui Juventud Aktiv 109 / 131 40% 2 08.10.2026 -
Yhormar Hurtado Junior Aktiv 102 / 102 40% 1 08.10.2026 -
Rodrigo Melo Estudiantes Aktiv 130 / 117 40% 1 08.10.2026 -
Michael Vadulli Audax Italiano Aktiv 125 / 124 40% 1 07.10.2026 -
Enzo González Defensores Aktiv 92 / 103 40% 1 01.10.2026 -
Jhon Murillo America de Cali Aktiv 130 / 130 40% 1 29.09.2026 -
Ramiro Ruiz Rodríguez Atlético Tucumán Aktiv 132 / 132 40% 3 28.09.2026 -
Lucas Cano All Boys Aktiv 115 / 126 40% 2 28.09.2026 -
Marcus Vinicius Deportivo Pereira Aktiv 122 / 97 40% 1 27.09.2026 -
Michael Nike Patriotas Aktiv 116 / 110 40% 2 24.09.2026 -
Emiliano Saliadarre Miramar Misiones Aktiv 107 / 113 40% 2 21.09.2026 -
Marcelo Torres Gimnasia La Plata Aktiv 138 / 104 40% 2 21.09.2026 -
José Bica Leixões Aktiv 92 / 92 40% 1 20.09.2026 -
Rodrigo Rivero Wanderers Aktiv 119 / 95 40% 1 17.09.2026 -
Julián Brea Cobresal Aktiv 96 / 92 40% 1 16.09.2026 -
Marco Miori Alvarado Aktiv 121 / 107 40% 1 16.09.2026 -
Jorge Ceará Aktiv 107 / 114 40% 1 14.09.2026 -
Nicolás Sosa Racing Aktiv 111 / 121 40% 1 10.09.2026 -
Alejo Cruz Juventud Aktiv 118 / 105 40% 1 10.09.2026 -
Enzo Cabrera Danubio Aktiv 93 / 124 40% 1 09.09.2026 -
Ruyery Blanco Alianza Petrolera Aktiv 96 / 114 40% 1 09.09.2026 -
Corey Baird CF Montreal Aktiv 102 / 129 40% 2 08.09.2026 -
Victor Mbaoma Tusker Aktiv 79 / 80 40% 1 06.09.2026 -
Francisco Bonfiglio Boston River Aktiv 121 / 103 40% 2 05.09.2026 -
Patrick Preciado Deportivo Pasto Aktiv 98 / 111 40% 1 01.09.2026 -
Jhonatan Candia Barracas Central Aktiv 133 / 122 40% 1 01.09.2026 -
Bautista Tomatis Racing Aktiv 124 / 99 40% 1 28.08.2026 -
Gustavo Torres Atletico Nacional Aktiv 106 / 130 40% 2 27.08.2026 -
Daniel Valencia America de Cali Aktiv 138 / 135 40% 1 27.08.2026 -
Lucas Carrizo Plaza Colonia Aktiv 127 / 110 40% 2 25.08.2026 -
Joaquín Zeballos Wanderers Aktiv 115 / 91 40% 1 25.08.2026 -
Razvan Puscas Astra Aktiv 135 / 97 40% 1 24.08.2026 -
Adrián Parra Deportes Tolima Aktiv 106 / 131 40% 1 23.08.2026 -
Agustín Paz Progreso Aktiv 113 / 108 40% 1 22.08.2026 -
Mauricio Márquez Caracas Aktiv 109 / 112 40% 1 19.08.2026 -
Federico Martínez Liverpool Montevideo Aktiv 108 / 116 40% 1 19.08.2026 -
Marcos Camarda Santiago Wanderers Aktiv 124 / 99 40% 2 14.08.2026 -
Xavier Biscayzacú Defensor Sporting Aktiv 105 / 134 40% 1 13.08.2026 -
Nicolás Orellana Audax Italiano Aktiv 112 / 121 40% 1 12.08.2026 -
Juan Dinenno Pumas UNAM Aktiv 123 / 139 40% 1 12.08.2026 -
Luciano Cosentino Wanderers Aktiv 111 / 106 40% 1 09.08.2026 -
Esteban Obregón Montevideo City Torque Aktiv 108 / 103 40% 1 09.08.2026 -
Clemente Montes Universidad Catolica Aktiv 134 / 128 40% 1 08.08.2026 -
Cristian Núñez Huracán Aktiv 93 / 106 40% 1 03.08.2026 -
Juan Sebastián Rivero Progreso Aktiv 106 / 103 40% 1 03.08.2026 -
Matías Gallegos Antofagasta Aktiv 119 / 98 40% 1 03.08.2026 -
Juan David Rueda Alianza Petrolera Aktiv 104 / 90 40% 1 03.08.2026 -